SL-16 DEB, 39849

Orbit data source: Space-Track

SL-16 DEB, 39849 is space debris in LEO originally from a launch on Fri, 25 Dec 1992 UTC launched from the Tyuratam Missile And Space Complex (TTMTR). Debris objects in space refer to the collection of defunct objects orbiting the Earth. Examples of debris include non-operational satellites, rocket bodies, and fragments generated from explosions, collisions, or faulty payload assembly.

Loading next visibility...
Identifier
39849, 1992-093LB
Orbit
LEO
Country
Flag of CISCIS
Related business
Manufacturer
Unknown
Mission
Spacecraft
Bus & Motor
Unknown
Mass
Unknown
Launch date (UTC)
1992-12-25 (33 years ago)
Launch vehicle
Unknown
Launch site
Tyuratam Missile And Space Complex (TTMTR)
Object type
Payload
Rocket body
Debris
Shape & HBR
Unknown shape, 0.1 m
Radar Cross Section
Small (<0.1 m²)

Expand to show TLE details & history
Last TLE update: 4 days ago

TLE from 4 days ago
0 SL-16 DEB
1 39849U 92093LB  26123.26269138  .00000586  00000-0  37414-3 0  9998
2 39849  70.8650 310.0888 0083915 288.6546  70.5474 14.06068252610798
Epoch: 2026-05-03T06:18Z
TLE epoch observation values (Epoch: 2026-05-03T06:18:16.535Z)
Latitude
0.00001°
Longitude
-5.64885°
Altitude
855.428 km
Speed
7.435 km/s
True Right ascension
20h 40m 21s
True Declination
0° 00' 00"
Sunlit
Object was in daylight at epoch
Visualization orbit readout
Latitude
Unknown
Longitude
Unknown
Altitude
Unknown
Speed
Unknown
Apparent Right ascension
Unknown
Apparent Declination
Unknown
Sunlit
N/A
Visualization observer readout
Local Sidereal Time
17:21:42
Azimuth
Unknown
Elevation
Unknown
Doppler factor
Unknown
Orbital elements
Apogee altitude
931.634 km
Perigee altitude
809.975 km
Semi-major axis
7,248.941 km
Eccentricity
0.00839
Inclination
70.865°
RAAN
310.0888°
Arg. of periapsis
288.6546°
True anomaly
71.45724°
Mean anomaly
70.5474°
Eccentric anomaly
71.00201°
Mean motion
3.51667 °/min
Orbital period
102.37 mins
BSTAR
0.00037414
Loading maneuver chart data...
Computing Atmospheric mass density...
Loading historical data...
Loading historical data...
Loading historical data...
Loading historical data...
Loading historical data...
Loading historical data...
Loading historical data...

Documentation

Showing up to 5 results
|